This is the latest recevied weather packets stored in our database for station/object HB9GPU-10. If no packets are shown the sender has not sent any weather packets the latest 1 day(s).
| Time | Temp. | Humidity | Pressure | Rain* | Wind** | Luminosity | Snow |
|---|---|---|---|---|---|---|---|
| 1778042435 | 25.56° C | 21% | 1011.6 hPa | - | - | - | - |
| 1778041530 | 26.67° C | 20% | 1011.7 hPa | - | - | - | - |
| 1778040630 | 26.67° C | 20% | 1011.7 hPa | - | - | - | - |
| 1778039734 | 28.33° C | 18% | 1011.8 hPa | - | - | - | - |
| 1778039730 | 28.33° C | 18% | 1011.8 hPa | - | - | - | - |
| 1778038834 | 28.33° C | 17% | 1012.2 hPa | - | - | - | - |
| 1778038830 | 28.33° C | 17% | 1012.2 hPa | - | - | - | - |
| 1778037934 | 27.22° C | 19% | 1012.5 hPa | - | - | - | - |
| 1778037929 | 27.22° C | 19% | 1012.5 hPa | - | - | - | - |
| 1778037034 | 28.33° C | 18% | 1012.5 hPa | - | - | - | - |
| 1778036133 | 27.78° C | 19% | 1012.7 hPa | - | - | - | - |
| 1778036129 | 27.78° C | 19% | 1012.7 hPa | - | - | - | - |
| 1778035229 | 26.67° C | 20% | 1012.9 hPa | - | - | - | - |
| 1778034333 | 26.11° C | 20% | 1013.1 hPa | - | - | - | - |
| 1778034329 | 26.11° C | 20% | 1013.1 hPa | - | - | - | - |
| 1778033433 | 26.11° C | 20% | 1013.3 hPa | - | - | - | - |
| 1778033429 | 26.11° C | 20% | 1013.3 hPa | - | - | - | - |
| 1778032533 | 26.11° C | 21% | 1013.2 hPa | - | - | - | - |
| 1778031628 | 25.56° C | 21% | 1013.3 hPa | - | - | - | - |
| 1778030732 | 25.56° C | 21% | 1013.5 hPa | - | - | - | - |
| 1778030728 | 25.56° C | 21% | 1013.5 hPa | - | - | - | - |
| 1778029828 | 25.56° C | 21% | 1013.7 hPa | - | - | - | - |
| 1778028932 | 26.11° C | 21% | 1013.6 hPa | - | - | - | - |
| 1778028928 | 26.11° C | 21% | 1013.6 hPa | - | - | - | - |
| 1778028032 | 25.56° C | 21% | 1013.7 hPa | - | - | - | - |
* Rain since midnight (hover to see other rain measurements)
** Current wind speed in m/s (hover to see current wind gust speed)